Flag for Russia Weather past 2 weeks in Yakutsk, Russia

Now
39 °F

Sunny.


Feels Like: 34 °F
Forecast: 29 / 39 °F
Wind: 8 mph from South

Location: Jakutsk


UV Index: 0 (Low)

Visibility: 10 mi


Pressure: 30.04 "Hg

Humidity: 56%

Dew point: 25 °F

Location of YakutskLocation

Historic Weather in Yakutsk

°F

Yakutsk temperature yesterday

Maximum temperature yesterday: 45 °F (at 5:00 PM)
Minimum temperature yesterday: 27 °F (at 2:00 AM)
Average temperature yesterday: 35 °F

Past Weeks' High & Low Weather Summary

 TemperatureHumidityPressure
High55 °F (Apr 12, 4:00 PM)93% (Apr 11, 7:00 AM)30.51 "Hg (Apr 11, 7:00 AM)
Low-6 °F (Apr 3, 7:00 AM)27% (Apr 9, 3:30 PM)29.50 "Hg (Apr 12, 9:30 PM)
Average27 °F60%29.95 "Hg
* Reported Apr 2 11:00 AM — Apr 17 11:00 AM, Yakutsk, Weather by CustomWeather, © 2014

Note: Actual official high and low records may vary slightly from our data, if they occured in-between our weather recording intervals... More about our weather records

Advertising

Historic Weather Conditions — Data for Previous 24 hours

 ConditionsComfort  
Time TempWeatherWind HumidityBarometerVisibility
11:00 AM
Apr 17
37 °FSunny.6 mph60%30.04 "Hg10 mi
10:30 AM36 °FSunny.8 mph65%30.04 "Hg10 mi
10:00 AM36 °FSunny.6 mph65%30.04 "Hg10 mi
9:30 AM34 °FSunny.6 mph65%30.04 "Hg10 mi
9:00 AM32 °FSunny.6 mph69%30.04 "Hg10 mi
8:30 AM30 °FSunny.6 mph75%30.04 "Hg10 mi
8:00 AM30 °FSunny.3 mph75%30.04 "Hg10 mi
7:30 AM28 °FSunny.3 mph80%30.04 "Hg10 mi
7:00 AM27 °FSunny.3 mph80%30.04 "Hg10 mi
6:30 AM25 °FClear.3 mph86%30.04 "Hg10 mi
6:00 AM25 °FClear.1 mph86%30.04 "Hg10 mi
5:30 AM25 °FPassing clouds.3 mph86%30.04 "Hg3 mi
5:00 AM25 °FPassing clouds.3 mph86%30.04 "Hg3 mi
4:30 AM25 °FIce fog.3 mph86%30.04 "Hg3 mi
4:00 AM25 °FClear.3 mph86%30.04 "Hg10 mi
3:30 AM25 °FClear.3 mph86%30.04 "Hg10 mi
3:00 AM25 °FClear.3 mph86%30.04 "Hg10 mi
2:30 AM23 °FClear.1 mph93%30.04 "Hg10 mi
2:00 AM23 °FClear.No wind93%30.04 "Hg10 mi
1:30 AM25 °FClear.No wind86%30.04 "Hg10 mi
1:00 AM25 °FClear.1 mph93%30.04 "Hg10 mi
12:30 AM25 °FClear.1 mph86%30.04 "Hg10 mi
12:00 AM27 °FClear.No wind80%30.04 "Hg10 mi
11:00 PM
Apr 16
30 °FClear.3 mph69%30.04 "Hg10 mi
10:30 PM32 °FClear.3 mph64%30.04 "Hg10 mi
10:00 PM32 °FClear.1 mph64%30.04 "Hg10 mi
9:30 PM32 °FSunny.3 mph64%30.01 "Hg10 mi
9:00 PM36 °FSunny.3 mph56%30.01 "Hg10 mi
8:30 PM37 °FSunny.3 mph48%30.01 "Hg10 mi
8:00 PM41 °FSunny.6 mph42%30.01 "Hg10 mi
7:30 PM41 °FSunny.10 mph42%30.01 "Hg10 mi
7:00 PM41 °FSunny.1 mph42%30.01 "Hg10 mi
6:30 PM41 °FSunny.6 mph42%30.01 "Hg10 mi
6:00 PM43 °FSunny.10 mph39%29.98 "Hg10 mi
5:30 PM45 °FPassing clouds.8 mph34%29.98 "HgN/A
5:00 PM45 °FSunny.8 mph31%29.98 "Hg10 mi
4:30 PM43 °FScattered clouds.8 mph34%29.98 "HgN/A
4:00 PM43 °FScattered clouds.6 mph39%29.98 "HgN/A
3:30 PM43 °FScattered clouds.6 mph39%29.98 "HgN/A
3:00 PM43 °FPartly sunny.6 mph36%29.98 "HgN/A
2:30 PM41 °FPartly sunny.8 mph45%30.01 "HgN/A
2:00 PM43 °FPartly sunny.6 mph36%30.01 "HgN/A
1:30 PM41 °FPassing clouds.6 mph42%30.01 "HgN/A
1:00 PM43 °FSunny.8 mph39%30.01 "Hg10 mi
12:30 PM41 °FSunny.8 mph45%30.01 "Hg10 mi
12:00 PM41 °FSunny.6 mph49%30.01 "Hg10 mi
11:30 AM41 °FSunny.8 mph49%30.01 "Hg10 mi
11:00 AM37 °FSunny.3 mph56%30.01 "Hg10 mi
Weather by CustomWeather, © 2014

See weather overview